Regional Weather Roundup
Issued by NWS Charleston, SC

Current Version | Previous Version | Graphics & Text | Print | Product List | Glossary On
Versions: 1 2 3 4 5 6 7 8 9 10 11 12 13 14 15 16 17 18 19 20 21 22 23 24 25 26 27 28 29 30 31 32 33 34 35 36 37 38 39 40 41 42 43 44 45 46 47 48 49 50
000
ASUS42 KCHS 101827
RWRCHS

REGIONAL WEATHER ROUNDUP
NATIONAL WEATHER SERVICE CHARLESTON SC
100 PM EST SAT DEC 10 2016

NOTE: "FAIR" INDICATES FEW OR NO CLOUDS BELOW 12,000 FEET WITH NO
SIGNIFICANT WEATHER AND/OR OBSTRUCTIONS TO VISIBILITY.

NOT ALL STATIONS ARE QUALITY CONTROLLED. USE DATA WITH CAUTION...
ESPECIALLY DEWPOINT OBSERVATIONS.

SCZ027-030-031-034>040-042>050-101900-
...SOUTHEAST SOUTH CAROLINA...

CITY           SKY/WX    TMP DP  RH WIND       PRES   REMARKS
N CHARLESTON   SUNNY     50  19  29 VRB6      30.50F
6HR MIN TEMP:  31; 6HR MAX TEMP:  50;

WATERFRONT PRK   N/A     46  27  47 N9        30.50F
MOUNT PLEASANT FAIR      48  21  34 N7        30.50F
JOHNS ISLAND   FAIR      50  23  34 N8        30.49F
PINOPOLIS        N/A     39  25  56 VRB3      30.46F
MONCKS CORNER  FAIR      45  21  39 N5        30.51F
SUMMERVILLE    FAIR      48  25  40 CALM      30.51F
BEAUFORT MCAS  SUNNY     52  18  26 N7        30.49F
6HR MIN TEMP:  33; 6HR MAX TEMP:  52;

BEAUFORT ARPT  FAIR      50  25  37 NE7       30.48F
HILTON HEAD IS NOT AVBL
WALTERBORO     CLEAR     50  19  29 N3        30.50F
ALLENDALE      FAIR      48  19  32 VRB5      30.48F

...SOUTHERN MIDLANDS AND PEE DEE...

CITY           SKY/WX    TMP DP  RH WIND       PRES   REMARKS
GEORGETOWN     NOT AVBL
KINGSTREE      FAIR      43  18  36 CALM      30.51F
ORANGEBURG     SUNNY     44  19  36 CALM      30.51F
6HR MIN TEMP:  28; 6HR MAX TEMP:  44;

BARNWELL       NOT AVBL
AIKEN          FAIR      43  19  39 W3        30.52F
MANNING        FAIR      43  19  39 NE5       30.51F
COLUMBIA       SUNNY     44  17  33 VRB3      30.51F
6HR MIN TEMP:  27; 6HR MAX TEMP:  45;

SUMTER         SUNNY     42  16  34 NE3       30.50F
6HR MIN TEMP:  24; 6HR MAX TEMP:  42;

FLORENCE       SUNNY     42  17  36 NE3       30.53F
6HR MIN TEMP:  26; 6HR MAX TEMP:  43;

MYRTLE BEACH   SUNNY     45  16  31 N9        30.54F
N MYRTLE BEACH SUNNY     45  17  32 N8        30.51F
6HR MIN TEMP:  27; 6HR MAX TEMP:  45;


$$

GAZ063-065-086>088-099>101-113>116-118-119-134>141-150-101900-
...SOUTHEAST GEORGIA...

CITY           SKY/WX    TMP DP  RH WIND       PRES   REMARKS
SAVANNAH ARPT  SUNNY     53  21  28 NE5       30.48F
6HR MIN TEMP:  30; 6HR MAX TEMP:  53;

HUNTER AAF     SUNNY     52  31  44 NE7       30.45F
6HR MIN TEMP:  35; 6HR MAX TEMP:  53;

FORT STEWART   SUNNY     53  24  32 N3        30.45F
6HR MIN TEMP:  30; 6HR MAX TEMP:  53;

STATESBORO     SUNNY     51  22  31 E5        30.48F
SYLVANIA       CLEAR    N/A N/A N/A NE5       30.49F
CLAXTON        FAIR      52  24  33 N5        30.48F

...CSRA...CENTRAL AND FAR SOUTHEAST GEORGIA...

CITY           SKY/WX    TMP DP  RH WIND       PRES   REMARKS
THOMSON        SUNNY     47  24  41 CALM      30.54F
AUGUSTA-BUSH   SUNNY     49  20  31 VRB7      30.51F
6HR MIN TEMP:  24; 6HR MAX TEMP:  49;

AUGUSTA-DANIEL SUNNY     47  18  31 N6        30.51F
SWAINSBORO     FAIR      50  21  32 MISG      30.49F
VIDALIA        SUNNY     52  30  43 E6        30.47F
EASTMAN        FAIR      53 -10   7 E3        30.50F
HAZLEHURST     FAIR      53  22  29 N6        30.45F
ALMA           SUNNY     53  18  25 E5        30.46F
6HR MIN TEMP:  30; 6HR MAX TEMP:  54;

WAYCROSS       SUNNY     57  29  34 NE7       30.44F
JESUP          FAIR      55  32  41 E7        30.45F
BAXLEY         FAIR      54  28  37 NE6       30.45F
BRUNSWICK      SUNNY     55  45  67 NE13G18   30.45F
SAINT SIMONS   SUNNY     56  42  59 N16G23    30.44F
6HR MIN TEMP:  41; 6HR MAX TEMP:  56;


$$

SCZ027-028-034-036>038-045-046-048>050-GAZ119-141-101900-
...LAKE AND SUPPLEMENTAL COASTAL OBSERVATIONS...

STATION/POSITION TIME  TEMP    WIND        PRES    WAVE   SWELL
                       AIR SEA DIR/SP/G            HT/PER HT/PER/DIR
                 (UTC) (F)     (DEG/KT/KT) (MB)    (FT/S) (FT/S/D)
WINYAH BAY       1745   43      40/  4     1033.0F
LAKE MURRAY      1720   41     210/  2/  4 1033.5F
ACE BASIN NERRS  1745   50      30/  4     1033.0S
FORT PULASKI     1800   49 59   60/ 11/ 16 1032.2
SAPELO ISLAND    1800   54      40/ 12     1031.0

$$

ANZ835-935-AMZ111-154-330-350-352-354-370-450-454-472-101900-
...C-MAN AND BUOY OBSERVATIONS...

STATION/POSITION TIME  TEMP    WIND        PRES    WAVE   SWELL
                       AIR SEA DIR/SP/G            HT/PER HT/PER/DIR
                 (UTC) (F)     (DEG/KT/KT) (MB)    (FT/S) (FT/S/D)
BUOY 41004       1750   50 73   30/ 12/ 17 1031.6F   3/ 5   2/ 60/ 8
BUOY 41008       1750   53 62   30/ 17/ 23 1030.5F   4/ 5   2/ 90/ 8
FOLLY BEACH CMAN 1800   46      60/ 10/ 12 1033.2F
CAPERS NEARSHORE 1708   44 59   40/ 14/ 19 1033.3F
FRIPP NEARSHORE  1808   48 59   40/ 14/ 16 1032.1F


STATION/POSITION TIME  TEMP    WIND        PRES    WAVE   SWELL
                       AIR SEA DIR/SP/G            HT/PER HT/PER/DIR
                 (UTC) (F)     (DEG/KT/KT) (MB)    (FT/S) (FT/S/D)
5E ST. MARYS GA  1800      64                N/A     4/ 5
FRYING PAN BUOY  1810   46 72  330/ 12/ 16 1032.3
BUOY 41025       1650   42 77  330/ 12/ 17 1032.3    5/ 9   5/ 60/ 9
CAPE LOOKOUT NC  1800   41     310/  8/ 10 1031.8F
BUOY 41002       1750   60 73   20/  8/ 14 1028.3F   5/ 9   5/ 40/ 9
BUOY 41010       NOT AVBL
ST AUGUSTINE FL  1800   59 64  360/ 22/ 23 1029.4F


$$



USA.gov is the U.S. government's official web portal to all federal, state and local government web resources and services.